Regional Weather Roundup
Issued by NWS Charleston, WV

Home | Current Version | Previous Version | Text Only | Print | Product List | Glossary On
Versions: 1 2 3 4 5 6 7 8 9 10 11 12 13 14 15 16 17 18 19 20 21 22 23 24 25 26 27 28 29 30 31 32 33 34 35 36 37 38 39 40 41 42 43 44 45 46 47 48 49 50
000
ASUS41 KRLX 261610
RWRRLX
West Virginia Regional Weather Roundup
National Weather Service Charleston WV
1200 PM EDT MON JUN 26 2017

Note: "fair" indicates few or no clouds below 12,000 feet with no
significant weather and/or obstructions to visibility.

WVZ003-261700-
Northern Panhandle of West Virginia

CITY           SKY/WX    TMP DP  RH WIND       PRES   REMARKS
WHEELING       MOSUNNY   69  49  48 SW14      30.09S
$$

WVZ009-261700-
Northwest West Virginia

CITY           SKY/WX    TMP DP  RH WIND       PRES   REMARKS
PARKERSBURG    MOSUNNY   71  51  49 SW8G17    30.14S
$$

WVZ006-261700-
Western West Virginia

CITY           SKY/WX    TMP DP  RH WIND       PRES   REMARKS
HUNTINGTON     SUNNY     72  50  45 W8G18     30.15S
$$

WVZ015-261700-
West Central West Virginia

CITY           SKY/WX    TMP DP  RH WIND       PRES   REMARKS
CHARLESTON     MOSUNNY   74  50  42 NW10G16   30.14S
$$

WVZ022-031-261700-
North Central West Virginia

CITY           SKY/WX    TMP DP  RH WIND       PRES   REMARKS
CLARKSBURG     PTSUNNY   72  49  44 W10G18    30.11S
MORGANTOWN     MOSUNNY   70  48  45 S8        30.12S
$$

WVZ025-035-042-045-261700-
Southern West Virginia

CITY           SKY/WX    TMP DP  RH WIND       PRES   REMARKS
BECKLEY        MOSUNNY   69  46  43 NW8G21    30.18F
LOGAN            N/A     72  50  46 W12       30.16F
BLUEFIELD      SUNNY     64  43  46 NW12G21   30.22R
LEWISBURG      SUNNY     69  43  38 NW7G18    30.17F
$$

WVZ047-261700-
Northern Mountains of West Virginia

CITY           SKY/WX    TMP DP  RH WIND       PRES   REMARKS
ELKINS         PTSUNNY   69  44  40 W9G17     30.15S
$$

WVZ052-261700-
Eastern Panhandle of West Virginia

CITY           SKY/WX    TMP DP  RH WIND       PRES   REMARKS
MARTINSBURG    PTSUNNY   75  43  31 VRB6      30.08F
PETERSBURG     MOSUNNY   76  46  34 W8        30.11F
$$



USA.gov is the U.S. government's official web portal to all federal, state and local government web resources and services.